Weather in Voskhod

Russia / Republic of Kalmykia     47°52′55″N   45°17′39″E
temp.,
°C
wind,
m/s
gust,
m/s
humid.,
%
clouds,
%
prec.,
mm/h
press.,
hPa
HPBL,
m
2 march, tue
tue200:00−2wsw01690 0.0 102721
03:00−2w34690 0.0 1027156
06:00−2wsw37730 0.0 1026273
09:000w68670 0.0 1025766
12:00+3wsw8105687 0.0 10221122
15:00+5w9125571 0.0 10201441
18:00+2wsw61472100 0.0 1017821
21:00+2wsw81574100 0.0 1015798
3 march, wed
wed300:000wsw91695100 0.3 1013705
03:00+1wsw91488100 0.5 1011851
06:00+1w91497100 0.4 1010745
09:00+1wnw71197100 1.3 1010586
12:00+2nw71094100 0.3 1011693
15:00+2nw9116999 0.4 10131200
18:000nw61181100 0.1 1016850
21:00−2nw5117268 0.2 1018737
4 march, thu
thu400:00−2wnw410770 0.0 1020706
03:00−2wnw510772 0.0 1021607
06:00−2w510730 0.0 1021430
09:00+1wsw812580 0.0 1021694
12:00+5wsw912480 0.0 10201253
15:00+6wsw912490 0.0 10181333
18:00+2sw510660 0.0 1017184
21:00+2sw715740 0.0 1018390
5 march, fri
fri500:00+1sw715780 0.0 1016531
03:00+1sw815820 0.0 1016543
06:00+1sw8168655 0.0 1015564
09:00+4wsw10167446 0.0 1015822
12:00+7wsw9136797 0.0 10151096
15:00+6wsw7117299 0.0 1015909
18:00+6wsw487998 0.0 1016213
21:00+5sw468193 0.0 1016154
6 march, sat
sat600:00+4ssw51177100 0.0 1016226
03:00+3ssw6128198 0.0 1015251
06:00+3sw7187170 0.0 1013513
09:00+5sw9156485 0.0 1012639
12:00+9wsw101361100 0.0 10111244
15:00+7w61074100 0.0 1011954
18:00+2nnw7892100 0.0 1012355
21:000nne7996100 1.4 1013579